Погода в Палестине

США     31°45′42″N   95°37′52″W
темп.,
°C
ветер,
м/с
пор.,
м/с
влажн.,
%
обл.,
%
осадки,
мм/ч
давл.,
гПа
погр.,
м
7 июля, чт
чт701:00+27ю4117652 0.0 1014397
04:00+25ю398646 0.0 1014305
07:00+24ю3991100 0.0 1015337
10:00+32юз455326 0.0 10151138
13:00+38ююз333379 0.0 10142729
16:00+33ю354997 0.6 1013229
19:00+37ююв353219 0.6 10111002
22:00+32ююв6124494 0.0 1012521
8 июля, пт
пт801:00+29ю5116051 0.0 1013636
04:00+26ююз411755 0.0 1014425
07:00+24ю310820 0.0 1016297
10:00+33юз45480 0.0 1017981
13:00+39ю43300 0.0 10152399
16:00+42ююв432247 0.0 10123718
19:00+41ююв542261 0.0 10113150
22:00+34ююв612394 0.0 1013395
9 июля, сб
сб901:00+30ю613540 0.0 1015500
04:00+26ююз410691 0.1 1015304
07:00+22юз3119436 1.6 1017272
10:00+31юз465149 0.1 1017616
13:00+40ююз322643 0.1 10151971
16:00+43ююв331922 0.0 10123912
19:00+40ю332197 0.1 1010886
22:00+33ююв494217 0.3 1013241
10 июля, вс
вс1001:00+24в410810 1.6 1015137
04:00+25юв22785 0.0 101426
07:00+23ю388311 0.0 1015206
10:00+33юз45440 0.0 1014915
13:00+42ссз12250 0.0 10122238
16:00+43всв44182 0.0 10084139
19:00+41ююв45243 0.0 10071490
22:00+32юв384779 0.0 1009247
11 июля, пн
пн1101:00+27ююз486522 0.0 1011231
04:00+24юв35787 0.1 101196
07:00+23ююв36902 0.4 1011148
10:00+32ю45490 0.0 1011791
13:00+39ю33310 0.0 10092239
16:00+42вюв432270 0.0 10064219
19:00+36ююв783512 0.0 1006740
22:00+30ююв6135955 0.0 1008442